GFSMA_925_temp_132.txt.gz
Temp
24 24 24 24 25 25 25 26 25 26 26 27 27 27 25 25 25 25 25 25 25 24 24 24 24 24 24 23 23 23 23 23 23 23 23 23 23 23 23 22 22 22 22
24 25 25 25 25 26 26 27 27 26 26 27 27 27 27 26 26 26 26 26 25 25 25 25 24 24 24 24 24 23 23 23 23 23 23 24 24 23 23 23 22 22 22
25 25 25 25 25 26 26 26 26 27 27 27 28 27 27 27 27 27 26 26 25 24 23 23 23 23 22 22 22 24 24 23 23 23 23 24 24 24 23 23 22 22 22
25 25 25 25 25 25 27 26 27 27 27 27 28 27 27 27 27 27 25 25 25 24 24 24 24 23 23 22 21 22 23 24 23 23 23 23 24 24 23 23 23 22 21
24 25 25 25 25 26 27 27 26 26 27 27 27 27 27 27 26 26 26 25 25 25 26 26 26 25 24 23 22 22 23 23 23 23 23 23 24 24 24 23 23 23 22
25 25 25 25 25 26 27 27 26 26 26 27 28 27 27 27 26 26 26 25 25 25 26 27 28 28 27 26 23 22 23 23 23 23 23 24 24 24 24 24 24 23 23
25 25 25 26 26 26 26 26 27 25 27 26 27 26 27 26 26 26 25 25 26 26 27 27 28 28 26 26 25 22 23 23 24 24 24 24 24 24 24 25 25 24 24
25 25 25 25 26 26 26 27 27 24 26 26 25 23 21 24 24 26 26 26 25 27 27 27 27 28 27 26 25 25 23 24 24 25 24 24 24 24 25 25 25 25 25
25 25 25 25 26 25 26 25 26 26 24 24 25 24 20 20 19 24 24 25 25 26 26 26 25 25 26 26 25 26 25 24 24 25 24 25 25 25 24 25 24 24 24
25 25 25 25 25 25 25 25 26 25 25 25 24 24 24 24 20 21 24 23 25 27 26 25 24 23 23 24 25 26 25 24 25 25 24 24 25 25 25 24 24 24 24
25 25 25 25 25 26 25 25 25 25 25 25 25 24 23 23 22 20 19 24 25 27 26 25 24 24 24 25 25 25 25 25 25 25 24 24 24 24 24 24 24 23 23
25 25 25 25 25 25 25 25 25 25 25 25 25 25 24 23 22 21 19 21 22 28 27 24 26 26 26 26 26 25 25 25 25 24 24 24 24 24 24 24 23 23 23
25 25 25 25 25 25 25 25 25 25 25 25 25 25 25 25 24 25 23 23 21 26 28 27 26 26 25 26 26 25 24 24 25 25 24 24 23 23 23 23 23 24 24
25 26 25 25 25 25 25 25 25 24 25 25 25 25 25 25 25 24 24 24 21 23 25 25 26 25 25 25 25 24 24 24 24 24 24 24 23 23 23 23 23 23 24
25 25 25 25 25 25 25 25 25 24 24 24 25 25 25 25 25 25 25 25 24 21 21 24 25 25 24 25 25 25 24 25 23 23 23 23 23 23 22 22 23 23 23
25 26 25 25 25 25 24 24 24 24 24 24 24 25 24 25 25 24 25 25 25 24 21 24 25 24 25 24 25 24 24 24 23 23 22 22 23 22 22 22 22 22 22
25 25 25 25 25 24 24 24 24 24 24 24 24 24 24 24 24 24 24 24 24 24 22 25 25 24 24 24 24 23 23 23 22 22 21 22 22 22 22 22 22 22 22
25 25 25 25 24 24 24 24 24 24 24 24 24 24 24 24 24 24 24 24 24 24 24 22 23 24 24 23 23 22 22 21 21 21 21 21 21 21 21 21 22 22 22
25 25 25 24 24 24 24 24 23 23 23 23 23 23 24 23 23 24 24 24 24 23 23 22 23 23 23 22 21 21 21 21 20 20 20 20 20 20 20 20 21 21 21
25 25 24 24 24 24 23 23 23 23 24 23 23 23 23 23 23 23 23 23 23 23 22 22 22 22 22 23 22 22 21 20 20 19 19 19 20 20 20 20 20 20 20
25 24 24 24 23 23 23 23 23 23 23 23 23 23 23 23 23 23 23 23 22 22 22 21 21 21 21 22 22 21 21 21 19 19 19 19 19 19 19 19 20 20 20
24 25 24 24 23 23 23 23 23 23 22 22 22 22 22 22 22 23 22 22 21 21 21 21 21 21 21 21 21 21 20 19 18 19 18 18 18 19 19 19 19 19 19
24 24 23 23 23 22 22 22 21 22 22 21 21 21 22 21 21 21 21 20 21 20 20 21 21 20 20 20 20 20 20 20 20 21 19 18 17 18 18 18 18 18 18
24 23 22 22 22 21 20 20 20 20 20 20 20 20 20 19 19 19 19 19 19 20 20 20 20 20 20 20 20 20 20 20 19 19 18 18 18 17 17 17 17 17 16
22 22 21 20 19 19 19 19 19 19 19 19 19 18 18 18 18 18 19 18 18 18 19 19 19 19 19 19 19 20 20 19 19 18 17 17 17 16 16 16 16 16 16
20 18 18 17 17 17 17 18 18 18 18 18 17 17 17 17 17 17 18 18 17 17 18 18 18 18 18 19 19 19 19 19 18 18 18 18 16 17 16 16 16 16 15

GFSMA_925_temp_138.txt.gz
Temp
23 23 24 24 24 24 24 25 25 25 25 25 26 26 26 25 25 24 24 24 23 23 22 22 22 23 22 23 23 23 23 23 23 23 23 22 22 22 22 22 22 22 22
23 23 24 24 24 24 24 25 26 26 26 26 26 26 26 26 25 24 24 24 24 24 24 23 22 22 23 23 23 23 24 24 23 23 23 22 22 22 22 22 22 22 22
23 23 23 24 24 25 25 26 26 26 26 26 26 26 26 26 25 25 25 25 25 25 25 25 25 24 23 23 24 24 24 24 24 23 23 22 23 22 22 22 22 22 21
23 24 24 24 24 25 25 25 26 26 26 27 26 26 26 26 25 25 25 25 25 25 25 25 24 23 23 23 24 25 25 24 24 24 24 23 22 22 23 22 22 22 21
24 24 24 24 25 25 25 25 26 26 26 26 26 26 26 25 25 25 25 25 25 25 25 24 23 23 22 23 23 23 24 24 26 24 24 23 23 23 23 22 22 22 22
24 24 24 24 25 25 25 25 25 26 26 26 25 25 25 25 25 26 26 26 26 26 25 24 23 23 23 23 24 24 23 24 26 24 24 23 23 23 23 23 23 23 22
23 24 24 24 24 25 25 25 25 25 26 25 24 24 25 24 24 25 25 25 25 25 25 25 24 23 23 23 24 25 23 25 25 24 24 24 23 23 23 23 24 23 23
23 24 24 24 24 25 25 25 25 25 26 25 25 22 22 23 24 25 24 25 25 25 25 25 25 23 24 23 24 25 25 25 25 25 24 23 23 24 24 24 24 24 23
23 23 24 24 24 24 25 25 25 25 25 24 24 24 21 21 20 25 25 25 26 25 25 26 25 24 24 24 25 25 25 25 25 25 24 23 23 23 24 24 23 23 23
24 24 24 24 24 24 24 24 25 25 25 25 24 24 23 22 22 23 25 26 25 26 26 27 27 26 25 25 26 25 25 25 25 25 24 23 23 23 23 23 23 23 22
24 24 24 24 24 24 24 24 25 24 24 24 24 24 23 22 22 20 22 23 27 27 27 27 27 26 26 26 26 25 25 25 25 24 24 23 23 23 23 23 23 23 22
24 24 24 24 24 24 24 24 24 24 24 24 24 24 23 23 22 21 20 21 21 26 26 26 27 27 26 26 25 25 25 25 24 24 24 24 23 22 22 22 23 23 23
24 24 24 24 24 24 24 24 24 24 24 24 24 23 23 23 23 22 21 21 21 24 26 26 26 26 26 26 25 25 25 24 24 24 23 23 23 22 22 22 22 22 23
24 24 24 24 24 24 24 24 24 24 24 23 23 23 23 23 23 23 23 22 22 21 24 25 25 25 25 25 25 25 25 25 24 24 23 23 22 22 22 22 22 22 22
25 24 24 24 24 24 24 24 24 24 23 23 23 23 23 23 23 23 23 23 22 22 23 25 24 25 25 25 25 25 25 24 24 24 23 22 22 22 22 22 22 22 22
25 24 24 24 24 24 24 24 24 24 23 23 23 23 23 23 23 23 23 23 22 21 22 23 24 24 24 24 24 24 24 24 23 23 21 21 21 21 22 22 22 22 22
25 24 24 24 25 25 24 24 24 24 23 23 23 23 23 23 23 23 23 22 22 22 20 23 23 24 24 24 23 23 23 22 22 21 20 20 20 21 21 21 21 21 21
25 24 24 24 25 25 24 24 24 24 24 23 23 23 23 23 23 23 22 22 22 22 21 21 22 23 23 23 23 22 22 22 21 21 20 20 20 20 20 20 21 21 21
24 24 24 24 25 25 24 24 24 24 23 23 23 23 23 23 23 22 22 22 22 22 21 20 21 21 22 22 22 21 21 21 21 20 20 20 20 20 20 20 20 20 20
24 24 24 24 24 24 24 24 24 23 23 23 23 23 23 23 23 22 22 22 22 21 21 20 20 20 21 21 21 20 20 20 20 20 20 20 19 19 19 19 19 19 20
23 23 24 24 24 24 24 24 23 23 23 23 23 23 22 23 22 22 22 21 21 21 20 19 19 19 19 20 20 20 19 19 19 19 18 18 18 18 18 18 18 18 18
23 23 23 23 23 23 23 23 23 22 22 22 23 22 22 21 21 21 21 21 21 20 19 19 19 18 19 19 19 19 18 18 19 17 17 17 17 17 17 17 17 17 16
22 23 23 23 23 23 23 23 22 22 22 22 21 21 21 21 20 20 20 19 19 19 19 19 18 18 18 18 19 19 18 18 18 17 17 17 17 16 16 16 16 16 15
22 22 22 23 23 22 22 22 22 21 21 20 20 19 19 19 19 19 19 18 18 18 18 18 18 17 17 17 18 18 17 18 17 16 16 17 16 15 15 15 15 14 14
21 22 22 22 22 21 21 21 20 20 19 18 18 18 18 18 18 18 18 18 17 17 17 16 17 16 16 16 16 16 17 16 15 15 16 16 16 16 15 14 13 12 12
20 19 20 20 20 20 19 18 18 18 18 17 16 16 16 16 16 17 17 17 17 17 17 16 16 16 16 16 15 16 17 16 16 16 15 16 16 15 15 15 14 13 12

GFSMA_925_temp_141.txt.gz
Temp
22 22 23 23 24 24 24 25 25 25 25 25 25 25 24 24 24 23 23 24 23 23 22 22 22 23 22 22 21 22 23 23 23 23 23 23 23 22 22 23 22 22 22
23 22 23 23 24 25 25 25 25 26 25 25 26 26 25 24 25 25 24 24 24 24 23 23 23 22 21 21 21 22 22 22 23 23 23 23 23 22 22 23 22 22 22
23 23 23 23 24 25 25 25 25 26 25 26 26 26 25 26 25 25 24 23 23 24 24 23 23 23 23 23 22 22 21 22 22 23 23 23 22 22 22 22 22 22 22
24 24 23 23 24 25 25 24 25 25 25 25 26 25 25 25 25 25 25 25 24 24 23 24 23 23 22 22 23 22 22 22 22 22 23 23 23 23 23 23 22 22 22
24 24 23 23 24 25 25 24 24 25 25 25 26 26 26 25 25 25 24 24 24 24 23 23 23 23 23 23 22 22 22 22 23 23 24 23 23 23 23 23 24 23 22
24 24 24 24 25 24 24 24 25 24 24 24 26 26 25 25 25 25 25 24 24 23 23 23 22 22 23 23 23 23 23 23 23 24 25 24 24 23 23 23 24 24 23
24 24 24 24 24 25 25 25 25 25 24 24 25 25 25 25 25 25 24 24 24 23 24 23 24 22 22 23 23 24 24 24 23 24 25 24 24 23 23 23 24 23 23
23 24 24 24 24 24 25 25 25 24 24 23 25 25 29 28 26 25 24 24 24 24 24 23 25 23 22 22 24 24 24 24 24 25 25 24 24 24 23 23 23 23 23
24 24 24 24 24 24 24 24 24 24 25 23 24 25 28 28 27 26 25 25 26 25 24 24 25 24 24 23 24 24 24 24 25 25 25 24 24 23 23 23 23 23 22
24 23 24 24 24 24 24 23 23 24 24 25 23 23 23 23 28 29 27 26 25 25 26 24 24 24 25 24 24 24 24 25 25 25 25 24 24 24 23 23 23 23 22
24 23 24 24 24 23 24 23 24 24 23 23 23 23 22 23 22 26 28 28 27 26 26 25 24 24 25 25 24 24 25 25 25 24 24 24 24 23 23 23 23 22 22
23 24 24 24 24 24 24 23 23 23 24 24 23 23 24 25 26 25 26 27 26 27 26 26 25 25 25 24 24 25 25 25 24 24 24 24 24 23 23 22 22 22 22
23 23 24 24 24 24 24 24 23 24 24 23 23 23 23 23 23 24 25 26 26 26 26 26 25 25 25 25 24 25 25 25 24 24 23 23 23 22 22 22 22 22 22
24 23 24 24 24 24 24 24 23 24 23 23 23 22 24 24 23 23 24 25 27 27 26 25 25 24 24 23 24 25 23 24 23 23 23 22 22 22 22 22 22 22 22
23 24 24 24 24 24 24 24 23 24 23 22 23 22 23 24 23 23 23 23 25 26 27 26 25 24 24 23 24 23 24 24 24 23 23 22 22 22 22 21 21 21 21
24 23 24 24 23 24 24 24 23 23 23 23 23 22 22 23 23 23 23 23 23 24 25 26 25 24 23 24 23 23 24 24 23 23 22 22 21 21 21 21 21 21 21
24 24 23 24 23 23 24 23 23 23 23 23 23 23 22 22 23 24 23 23 23 22 23 25 23 23 22 23 22 22 21 22 20 22 21 21 21 21 21 21 21 21 21
24 24 24 24 23 23 24 24 24 23 23 23 23 23 23 23 22 23 22 23 23 23 22 23 23 22 22 22 22 21 21 21 20 21 21 20 20 20 20 20 20 20 20
24 23 23 23 23 24 24 24 24 24 23 23 23 23 23 23 22 23 22 22 22 22 22 22 23 23 22 22 21 21 20 20 20 21 20 20 19 19 19 19 19 19 19
22 22 22 22 23 24 24 24 24 24 23 23 23 23 23 22 22 22 22 22 22 22 22 22 23 23 22 22 21 21 22 20 20 19 19 19 19 19 19 18 18 18 18
22 23 23 22 23 23 23 23 24 24 24 23 22 23 23 22 22 21 21 22 21 21 22 22 21 21 21 21 21 21 21 21 20 18 18 18 17 17 16 17 17 17 17
21 21 22 22 22 23 23 24 24 23 23 22 23 22 22 21 21 21 21 21 20 20 20 20 20 20 20 19 19 20 20 21 21 17 17 18 17 16 16 15 16 16 16
21 21 21 22 22 22 23 24 23 23 23 22 22 21 19 19 20 19 20 19 19 19 19 18 19 18 18 17 17 18 18 18 18 16 16 16 17 15 15 14 15 15 15
21 21 21 21 21 21 23 23 23 23 20 19 19 19 18 19 19 19 18 18 17 17 18 18 17 16 16 17 17 17 17 16 16 16 16 16 17 16 16 15 16 15 14
20 21 21 21 21 20 22 22 22 19 18 18 18 18 18 18 18 18 17 18 17 16 16 17 16 16 16 16 16 17 16 16 16 15 16 15 16 16 16 15 14 15 12
19 19 20 20 20 19 21 21 19 18 17 17 17 17 17 17 17 17 18 17 16 16 16 15 15 16 15 15 16 16 16 16 15 15 16 16 16 16 18 15 14 12 12

GFSMA_925_temp_144.txt.gz
Temp
24 25 24 26 25 26 26 26 27 27 27 27 27 27 28 27 27 27 27 25 24 23 23 23 23 23 22 21 21 22 21 21 22 22 22 23 23 23 23 23 22 21 22
24 25 25 26 26 26 27 27 27 27 28 28 28 27 27 28 26 26 27 26 25 24 24 24 24 23 23 22 22 22 22 22 22 22 22 22 23 23 23 23 23 22 22
23 24 25 26 26 26 26 27 27 27 28 28 28 28 28 27 27 26 27 27 26 25 25 24 24 23 23 23 23 22 22 23 22 22 22 22 22 23 23 23 23 23 23
23 24 26 26 25 26 27 27 28 28 29 29 29 29 28 28 27 27 27 27 27 27 26 25 24 24 23 23 23 22 22 23 22 23 23 22 22 23 23 23 22 23 23
24 25 26 26 25 26 27 27 28 27 28 29 29 29 29 29 28 29 28 27 27 26 27 26 24 24 24 23 23 23 22 23 23 23 22 22 22 23 23 23 23 23 23
24 24 26 25 25 26 27 27 25 27 27 28 30 30 29 29 28 28 28 28 28 26 27 26 25 26 24 24 24 24 24 23 23 23 23 23 23 23 23 24 23 23 23
24 24 26 25 25 26 25 25 26 27 28 27 28 30 30 29 29 29 29 29 28 27 27 27 25 26 26 24 24 24 24 24 24 24 23 23 23 24 23 24 24 24 24
24 24 24 25 25 26 25 25 25 27 28 27 28 30 32 32 30 30 29 28 28 28 28 27 25 25 25 25 25 25 24 24 24 23 23 24 24 24 24 24 24 23 23
24 24 24 24 24 24 26 25 25 25 28 27 25 28 31 31 30 30 29 29 28 29 28 28 26 26 25 25 25 25 25 25 24 24 24 24 23 23 24 24 23 23 22
24 24 24 24 24 25 24 25 25 24 25 28 28 27 25 26 30 31 31 29 29 29 28 28 28 27 25 26 25 25 25 24 24 24 24 24 24 23 23 23 23 23 22
24 24 24 24 24 24 24 24 24 23 26 26 27 28 27 28 27 29 30 31 30 30 29 29 28 28 26 26 26 25 25 24 24 24 24 24 23 23 23 23 22 22 22
25 24 24 24 24 24 24 24 24 23 24 25 26 26 28 28 29 29 30 30 30 30 29 29 29 28 27 26 25 25 24 24 24 24 24 23 23 23 23 22 22 22 22
27 26 24 24 24 24 24 24 23 24 24 25 25 27 27 27 27 28 28 29 30 30 29 29 29 28 27 26 26 25 24 24 24 24 23 23 23 22 22 22 22 22 22
27 26 25 24 24 24 24 24 23 25 25 25 25 25 26 27 27 27 28 28 29 30 30 28 28 27 27 26 25 25 25 24 24 23 23 22 22 22 22 22 22 22 22
26 25 25 25 25 24 24 24 25 25 25 25 26 25 25 27 27 27 27 27 27 29 30 27 28 27 27 27 25 24 24 24 24 23 22 21 21 21 21 21 21 21 21
25 25 25 25 25 25 24 24 25 25 25 25 26 26 25 26 27 27 26 26 27 25 26 28 27 27 25 25 26 24 24 23 22 22 22 21 21 20 20 21 21 21 21
24 24 24 24 24 24 24 24 24 25 25 24 25 25 25 24 25 27 27 27 25 24 24 27 27 26 24 24 24 24 24 24 23 22 22 21 21 21 21 21 21 21 21
24 24 24 24 24 24 24 24 24 25 25 24 24 24 24 24 24 24 25 25 24 23 25 26 26 25 24 24 23 23 24 24 22 21 21 20 20 20 20 20 20 20 20
24 24 24 24 24 24 24 24 24 24 25 25 25 25 24 24 24 23 24 24 24 23 23 23 25 27 25 25 24 24 23 22 21 21 20 20 20 19 19 19 19 19 19
24 24 24 24 24 24 24 25 25 24 24 24 24 24 24 24 24 23 23 23 23 23 25 25 25 25 24 24 22 22 22 21 22 21 20 20 19 18 18 18 18 18 18
24 24 24 24 24 25 25 25 25 25 24 24 24 24 24 23 23 23 22 22 22 23 26 26 24 24 23 21 21 22 22 22 20 20 20 20 20 19 18 17 16 17 17
23 23 23 24 24 25 26 25 24 25 24 24 24 23 23 23 22 22 21 21 21 22 23 24 23 21 20 20 21 22 23 23 21 19 20 19 18 18 17 15 16 16 16
23 23 23 24 24 24 25 24 24 24 24 24 23 23 22 22 21 20 21 20 20 20 20 20 21 20 19 18 18 19 18 19 17 17 17 17 17 16 16 16 15 14 14
23 23 23 23 23 24 24 23 23 23 23 23 23 22 22 20 20 21 21 20 20 19 18 20 19 17 18 17 17 17 17 16 16 16 17 17 17 18 15 14 14 13 13
22 22 23 23 23 24 23 23 23 23 22 20 20 20 20 19 19 20 21 20 18 17 17 17 16 16 16 16 16 16 16 16 16 16 17 17 18 19 17 15 13 14 12
22 22 22 22 22 22 22 22 23 23 20 19 18 17 17 18 19 19 19 19 18 16 16 15 15 15 15 16 16 16 16 17 20 20 18 19 20 20 21 18 16 14 12

GFSMA_925_temp_147.txt.gz
Temp
27 27 27 27 28 29 29 29 29 28 28 29 29 29 30 29 29 30 27 27 26 25 25 24 24 23 22 22 21 21 21 21 21 22 22 22 22 22 22 22 22 22 22
26 27 27 28 29 29 29 29 28 28 29 30 29 29 29 29 28 28 29 27 27 26 26 25 24 24 23 22 21 21 21 22 22 22 23 22 22 22 22 22 22 22 21
26 27 28 28 29 27 28 28 28 29 30 30 29 29 30 29 29 28 29 29 27 27 27 26 25 25 24 23 23 22 22 22 22 22 23 22 23 22 22 22 22 22 21
25 26 27 28 28 28 29 29 30 30 30 30 30 30 30 30 29 29 29 29 29 29 27 27 26 25 24 24 23 22 22 23 22 22 23 23 22 22 22 23 22 23 22
25 26 28 27 26 29 29 27 30 29 30 31 31 31 30 30 30 31 30 29 29 28 28 27 27 26 25 25 24 23 23 23 23 23 23 23 22 23 23 23 23 23 23
26 26 28 26 26 29 29 27 27 28 29 30 31 31 31 31 31 30 31 31 30 29 29 28 27 27 27 25 25 24 24 24 24 24 23 23 23 23 23 23 24 24 24
26 25 27 26 27 27 26 27 27 28 30 30 30 31 31 31 31 31 31 31 30 30 29 29 27 28 27 26 25 25 25 24 24 24 23 23 23 23 23 23 23 24 24
26 26 26 27 27 28 26 26 26 27 30 29 29 31 30 24 25 30 31 30 30 30 30 30 27 27 26 27 26 25 25 24 24 24 24 23 22 23 23 23 23 24 23
26 25 26 25 26 26 28 26 27 27 29 29 28 29 31 26 24 31 30 31 29 30 30 30 29 28 26 27 26 25 25 25 24 24 23 23 23 23 23 23 23 23 23
26 26 25 25 25 26 27 27 26 26 26 29 30 30 27 27 30 31 32 27 31 31 30 30 30 29 27 27 27 26 25 25 24 24 23 23 23 23 23 23 23 23 23
26 26 26 26 25 25 26 25 26 25 27 27 29 30 29 29 29 29 31 31 32 31 31 31 30 30 29 27 27 26 25 24 24 24 23 23 23 23 23 23 23 22 22
26 25 26 25 25 25 26 25 25 25 25 26 27 28 29 30 29 28 28 31 31 32 31 31 31 30 29 28 26 25 25 24 24 23 23 22 22 22 22 22 22 22 22
28 26 25 25 26 25 25 25 25 25 25 26 26 27 29 29 29 30 30 31 31 31 31 31 30 29 28 28 25 25 25 24 24 23 23 22 22 22 21 21 21 21 22
27 27 25 26 25 25 25 24 24 25 26 26 25 25 27 28 29 30 30 30 30 31 29 29 28 28 27 27 27 26 25 24 24 23 23 22 22 21 21 21 21 22 21
27 27 25 26 26 26 25 25 24 26 26 25 26 26 26 27 29 30 30 29 29 29 27 27 27 27 27 27 26 26 25 24 23 23 22 22 21 21 21 21 21 21 21
27 26 26 26 26 26 26 25 26 26 26 26 27 27 27 28 28 29 29 29 29 27 26 26 27 27 26 27 26 26 25 25 23 23 22 21 20 20 20 20 20 20 20
26 26 25 26 26 26 26 25 24 25 25 25 26 26 26 26 26 27 29 28 28 26 25 27 27 27 26 25 24 24 25 24 23 22 22 21 20 20 20 20 20 20 20
25 25 25 24 25 25 25 24 24 26 26 26 25 24 25 25 24 24 25 25 27 25 23 24 25 26 25 25 24 24 25 25 22 22 22 20 20 19 19 19 19 20 20
24 26 25 25 24 24 24 25 25 25 25 26 25 25 25 24 24 24 23 24 24 24 23 24 24 27 26 25 24 25 23 23 22 21 21 20 20 19 19 19 18 18 19
24 24 25 25 25 25 25 25 25 24 25 25 26 26 24 24 24 24 23 23 24 24 24 24 26 26 25 24 23 23 23 22 21 21 20 19 19 19 18 17 17 17 17
24 24 24 25 25 26 26 25 25 25 25 25 25 25 24 23 24 24 23 23 23 23 23 24 25 24 24 23 22 22 23 21 20 20 20 20 20 18 17 16 16 16 16
24 24 24 24 25 25 27 26 26 26 26 25 25 24 24 23 23 23 23 23 22 23 24 24 23 23 22 21 22 23 23 22 20 20 19 19 19 18 17 16 16 15 15
24 24 24 24 25 24 25 26 26 26 26 26 25 24 23 23 22 21 21 22 21 21 21 21 22 20 21 19 19 20 19 20 19 17 18 17 18 17 16 16 16 15 14
23 23 23 23 24 24 24 25 25 25 25 25 25 24 23 23 22 21 21 21 22 19 19 20 19 18 18 18 18 17 17 17 17 17 18 17 18 20 17 15 16 16 15
22 22 22 23 23 24 24 24 24 24 25 24 24 23 23 22 22 21 22 21 20 18 18 18 18 18 17 17 17 18 18 18 17 18 18 19 21 21 20 17 16 16 16
22 23 24 22 22 22 23 24 24 24 25 24 22 21 22 21 20 20 21 20 20 18 16 15 16 17 17 17 17 17 18 19 21 21 18 19 22 22 22 20 17 17 16